Location: Barrhead
(54.1232°N, 114.4020°W)
Time: 17:27:50
(UTC+00:00)

ISS - Visible Passes

Search period start: 06 July 2022 00:00
Search period end: 16 July 2022 00:00
Orbit: 414 x 420 km, 51.6° (Epoch: 06 July)

Date Brightness Start Highest point End Pass type
(mag) Time Alt. Az. Time Alt. Az. Time Alt. Az.
06 Jul -2.4 08:18:59 21° SSE 08:19:27 22° SSE 08:22:07 10° E visible
06 Jul -3.5 09:52:30 10° WSW 09:55:46 50° S 09:59:03 10° E visible
07 Jul -1.8 07:32:07 15° SE 07:32:07 15° SE 07:33:35 10° ESE visible
07 Jul -3.3 09:04:58 14° SW 09:07:36 43° SSE 09:10:50 10° E visible
08 Jul -3.1 08:18:00 23° SSW 08:19:27 35° SSE 08:22:34 10° E visible
08 Jul -3.7 09:52:37 10° WSW 09:55:56 57° S 09:59:15 10° E visible
09 Jul -2.8 07:30:52 27° S 07:31:19 28° SSE 07:34:14 10° E visible
09 Jul -3.7 09:04:25 10° WSW 09:07:43 54° S 09:11:02 10° E visible
10 Jul -2.4 06:43:27 21° SE 06:43:27 21° SE 06:45:49 10° E visible
10 Jul -3.6 08:16:17 10° WSW 08:19:31 49° S 08:22:46 10° E visible
10 Jul -3.6 09:52:46 10° W 09:56:03 51° S 09:59:20 10° ESE visible
11 Jul -2.1 05:55:15 16° SE 05:55:15 16° SE 05:57:13 10° ESE visible
11 Jul -3.4 07:28:06 10° SW 07:31:18 42° SSE 07:34:30 10° E visible
11 Jul -3.7 09:04:31 10° W 09:07:49 55° S 09:11:08 10° ESE visible
12 Jul -1.7 05:06:04 10° SSE 05:07:04 11° SE 05:08:05 10° ESE visible
12 Jul -3.2 06:40:01 10° SW 06:43:06 34° SSE 06:46:11 10° E visible
12 Jul -3.8 08:16:16 10° WSW 08:19:34 56° S 08:22:53 10° E visible
12 Jul -3.2 09:52:55 10° W 09:56:04 37° SSW 09:59:12 10° SE visible
13 Jul -2.8 05:52:03 10° SSW 05:54:56 27° SSE 05:57:49 10° E visible
13 Jul -3.7 07:28:01 10° WSW 07:31:19 54° S 07:34:37 10° E visible
13 Jul -3.5 09:04:36 10° W 09:07:50 45° SSW 09:11:05 10° ESE visible
14 Jul -2.4 05:04:13 10° SSW 05:06:47 20° SSE 05:09:21 10° E visible
14 Jul -3.6 06:39:49 10° WSW 06:43:04 48° SSE 06:46:20 10° E visible
14 Jul -3.7 08:16:19 10° W 08:19:36 52° S 08:22:53 10° ESE visible
14 Jul -2.6 09:53:11 10° W 09:55:57 24° SSW 09:58:42 10° SSE visible
15 Jul -3.4 05:51:38 10° SW 05:54:48 41° SSE 05:58:00 10° E visible
15 Jul -3.8 07:28:01 10° W 07:31:20 56° S 07:34:38 10° ESE visible
15 Jul -3.0 09:04:45 10° W 09:07:46 30° SSW 09:10:46 10° SE visible
